Elk City, ID

7:15 AM PDT on September 28, 2016 (GMT -0700)
Lowell

Weather History for KP69 - October, 2012

Change the Weather History Date:

Monday, October 15, 2012

  Actual Average Record
Temperature  
Mean Temperature 61 °F -  
Max Temperature 70 °F 58 °F 71 °F (2004)
Min Temperature 52 °F 38 °F 30 °F (2002)
Degree Days  
Heating Degree Days 4    
Growing Degree Days 11 (Base 50)    
Moisture  
Dew Point 54 °F    
Average Humidity 90    
Maximum Humidity 97    
Minimum Humidity 61    
Precipitation  
Precipitation 0.64 in - - ()
Sea Level Pressure  
Sea Level Pressure 29.92 in    
Wind  
Wind Speed 0 mph (NNW)    
Max Wind Speed 4 mph    
Max Gust Speed -    
Averages and records for this station are not official NWS values.
T = Trace of Precipitation, MM = Missing Value Source: NWS Daily Summary

Daily Weather History Graph

Daily Weather History Graph

Search for Another Location

Airport or City:

Trip Planner

Search our weather history database for the weather conditions in past years. The results will help you decide how hot, cold, wet, or windy it might be!

Date:

Astronomy

Oct. 15, 2012 Rise Set
Actual Time 8:00 AM MDT 6:55 PM MDT
Civil Twilight 7:29 AM MDT 7:25 PM MDT
Nautical Twilight 6:55 AM MDT 7:59 PM MDT
Astronomical Twilight 6:20 AM MDT 8:34 PM MDT
Moon 8:19 AM MDT (10/15) 6:52 PM MDT (10/15)
Length of Visible Light 11h 55m
Length of Day
10h 54m
New Moon, 0% of the Moon is Illuminated
Oct 15
New Moon
Oct 21
First Quarter
Oct 29
Full
Nov 6
Last Quarter
Nov 13
New

Hourly Weather History & Observations

Time (MDT) Temp. Dew Point Humidity Pressure Visibility Wind Dir Wind Speed Gust Speed Precip Events Conditions
12:52 AM 54.0 °F 52.0 °F 93% 29.96 in - Calm Calm - N/A   Unknown
1:52 AM 54.0 °F 52.0 °F 93% 29.99 in - Calm Calm - 0.03 in   Unknown
2:52 AM 53.1 °F 51.1 °F 93% 29.98 in - Calm Calm - 0.01 in   Unknown
3:52 AM 53.1 °F 51.1 °F 93% 29.94 in - Calm Calm - N/A   Unknown
4:52 AM 53.1 °F 51.1 °F 93% 29.95 in - Calm Calm - 0.03 in   Unknown
5:52 AM 52.0 °F 51.1 °F 97% 29.96 in - Calm Calm - 0.13 in   Unknown
6:52 AM 53.1 °F 51.1 °F 93% 29.96 in - Calm Calm - 0.12 in   Unknown
7:52 AM 53.1 °F 52.0 °F 96% 29.96 in - Calm Calm - 0.04 in   Unknown
8:52 AM 53.1 °F 52.0 °F 96% 29.97 in - Calm Calm - 0.05 in   Unknown
9:52 AM 54.0 °F 52.0 °F 93% 29.99 in - Calm Calm - 0.02 in   Unknown
10:52 AM 55.0 °F 53.1 °F 93% 29.99 in - Calm Calm - 0.10 in   Unknown
11:52 AM 55.9 °F 54.0 °F 93% 29.98 in - Calm Calm - 0.02 in   Unknown
12:52 PM 57.9 °F 55.0 °F 90% 29.99 in - Calm Calm - 0.02 in   Unknown
1:52 PM 70.0 °F 55.9 °F 61% 29.94 in - Calm Calm - N/A   Unknown
2:52 PM 64.0 °F 57.9 °F 80% 29.93 in - Calm Calm - N/A   Unknown
3:52 PM 66.9 °F 57.0 °F 70% 29.90 in - Variable 3.5 mph - N/A   Unknown
4:52 PM 62.1 °F 59.0 °F 90% 29.89 in - Calm Calm - N/A   Unknown
5:52 PM 60.1 °F 55.0 °F 83% 29.89 in - NW 3.5 mph - N/A   Unknown
6:52 PM 57.0 °F 55.0 °F 93% 29.88 in - Calm Calm - N/A   Unknown
7:52 PM 57.0 °F 55.0 °F 93% 29.86 in - Calm Calm - N/A   Unknown
8:52 PM 55.9 °F 54.0 °F 93% 29.83 in - North 3.5 mph - N/A   Unknown
9:52 PM 55.9 °F 54.0 °F 93% 29.82 in - Calm Calm - N/A   Unknown
10:52 PM 55.9 °F 54.0 °F 93% 29.80 in - Calm Calm - 0.05 in   Unknown
11:52 PM 55.9 °F 54.0 °F 93% 29.77 in - Calm Calm - 0.02 in   Unknown